Regional Weather Roundup
Issued by NWS

Home | Current Version | Previous Version | Text Only | Print | Product List | Glossary On
Versions: 1 2 3 4 5 6 7 8 9 10 11 12 13 14 15 16 17 18 19 20 21 22 23 24 25 26 27
000
ASUS42 KTBW 280517
RWRFL
FLORIDA REGIONAL WEATHER ROUNDUP
NATIONAL WEATHER SERVICE TAMPA BAY RUSKIN FL
100 AM EDT THU JUL 28 2016

NOTE: "FAIR" INDICATES FEW OR NO CLOUDS BELOW 12,000 FEET WITH NO
SIGNIFICANT WEATHER AND/OR OBSTRUCTIONS TO VISIBILITY.

FLZ001>010-012>015-112-114-115-280600-
PANHANDLE FLORIDA

CITY           SKY/WX    TMP DP  RH WIND       PRES   REMARKS
PENSACOLA      CLEAR     80  74  81 CALM      30.03F
PENSACOLA NAS  CLEAR     76  73  91 CALM      30.03S
MILTON NAS     CLEAR     77  74  90 CALM      30.04
CRESTVIEW      CLEAR     74  72  93 CALM      30.06S
DUKE FIELD     CLEAR     76  74  94 SE1       30.05S
VALPARAISO     PTCLDY    80  74  84 CALM      30.04S
MARY ESTHER    CLEAR     79  74  86 N2        30.03S
PANAMA CITY    FAIR      78  76  93 CALM      30.04S
TYNDALL AFB    CLEAR     83  76  79 SW6       30.05S
APALACHICOLA   CLEAR     80  77  90 CALM      30.05S

STATION/POSITION SKY/WX   TEMP    WIND        PRES    WAVE   SWELL
                          AIR SEA DIR/SP/G            HT/PER HT/PER
                          (F)     (DEG/KT/KT) (MB)    (FT/S) (FT/S)
30.1N   87.6W              85 87  220/  4/  4 1017.2F   2/ 4   2/ 6
29.2N   88.2W              84 86   90/  4/  6 1017.0S
28.8N   86.0W              85 87   CALM  /  2 1018.1F   2/ 6   2/ 6
PANAMA CITY BEAC           85 88  230/  9/ 11 1017.9F
TOWER C                    85     270/  7/  8 1018.7R
28.5N   84.5W              85 87  290/  2/  2 1017.7F   2/ 6   2/ 6

$$
FLZ011-016>038-118-127-128-134-139-239-280600-
NORTH FLORIDA

CITY           SKY/WX    TMP DP  RH WIND       PRES   REMARKS
MARIANNA       CLEAR     78  75  90 CALM      30.05R
TALLAHASSEE    CLEAR     80  76  87 SW3       30.05S
PERRY          CLEAR     77  75  92 CALM      30.07R
LIVE OAK         N/A     79  77  94 CALM      30.08R
CROSS CITY       N/A     78  73  84 CALM      30.05F
LAKE CITY      FAIR      77  72  83 SE5       30.06R
GAINESVILLE    LGT RAIN  81  73  76 CALM      30.07R
WILLISTON      FAIR      79  79 100 CALM      30.08R
PALATKA        CLOUDY    82  77  83 S5        30.07S
MAYPORT NAS    CLEAR     81  75  82 VRB6      30.05R
JACKSONVILLE   CLEAR     80  76  87 SW8       30.05R
JAX NAS        PTCLDY    86  73  65 SW8       30.06R
JAX CECIL      PTCLDY    81  73  78 S5        30.06R
FERNANDINA BEA FAIR      86  77  74 S6        30.04R HX  97
ST AUGUSTINE   PTCLDY    82  73  74 S9        30.06S
PALM COAST     MOCLDY    80  75  85 SW5       30.07R

STATION/POSITION SKY/WX   TEMP    WIND        PRES    WAVE   SWELL
                          AIR SEA DIR/SP/G            HT/PER HT/PER
                          (F)     (DEG/KT/KT) (MB)    (FT/S) (FT/S)
SHELL POINT                84     260/  9/ 11 1016.3
KEATON BEACH               86     270/  9/ 10 1017.5R
CEDAR KEY                  84     300/  2/  3 1018.5R
FERNANDINA                 84 90  160/  4/  6 1017.2F
30.7N   81.3W                 86                N/A     3/ 4
MAYPORT                    83 89  190/  4/  7 1017.8F
31.4N   80.9W              86 87  190/ 17/ 21 1016.4S   3/ 4
ST AUGUSTINE               81 86  210/  5/  7 1018.9R

$$
FLZ040-043>046-052-053-057-058-063-144-280600-
INTERIOR CENTRAL FLORIDA

CITY           SKY/WX    TMP DP  RH WIND       PRES   REMARKS
OCALA          MOCLDY    77  72  83 CALM      30.07S
THE VILLAGES     N/A     81  77  89 CALM      29.97S
LEESBURG       CLEAR     85  74  69 S12       30.07S
SANFORD        CLEAR     82  74  76 S8        30.07S
ORLANDO EXEC   CLEAR     82  74  76 SE6       30.07S
ORLANDO INTL   PTCLDY    80  74  81 SE5       30.07F
KISSIMMEE      MOCLDY    82  77  84 S6        30.08S
WINTER HAVEN   CLOUDY    78  74  87 CALM      30.09S
LAKELAND       CLOUDY    77  73  88 CALM      30.08F
BARTOW         MOCLDY    79  77  94 CALM      30.08F
OKEECHOBEE     CLEAR     77  73  88 CALM      30.08S

$$
FLZ041-047-054-059-064-141-147-280600-
EAST CENTRAL FLORIDA

CITY           SKY/WX    TMP DP  RH WIND       PRES   REMARKS
DAYTONA BEACH  PTCLDY    81  76  84 S7        30.07R
JFK SPACE CTR  CLEAR     81  76  84 S5        30.06S
CAPE CANAVERAL CLEAR     83  76  80 S8        30.05F
PATRICK AFB    CLEAR     83  76  80 S7        30.06F
MELBOURNE      CLEAR     81  75  82 S5        30.07S
VERO BEACH     CLEAR     78  74  87 CALM      30.08S
FT PIERCE      CLEAR     76  75  97 CALM      30.07F
STUART         CLEAR     82  79  89 CALM      30.08S

STATION/POSITION SKY/WX   TEMP    WIND        PRES    WAVE   SWELL
                          AIR SEA DIR/SP/G            HT/PER HT/PER
                          (F)     (DEG/KT/KT) (MB)    (FT/S) (FT/S)
28.5N   80.2W              83 83  170/  8/  8 1018.5S
28.9N   78.5W              85 87  170/ 10/ 12 1018.2F
TRIDENT PIER               83 86  140/  7/ 11 1018.4F
28.4N   80.5W                 83                N/A     2/ 3
27.5N   80.2W                 83                N/A     1/ 8

$$
FLZ050-056-061-142-242-148-248-149-249-151-251-155-255-
160-260-280600-
WEST CENTRAL FLORIDA

CITY           SKY/WX    TMP DP  RH WIND       PRES   REMARKS
CRYSTAL RIVER  FAIR      75  73  94 CALM      30.07S
INVERNESS      FAIR      73  73 100 CALM      30.09R
BROOKSVILLE    LGT RAIN  79  73  82 E5        30.09S
ZEPHYRHILLS    MOCLDY    64  64 100 CALM      30.08F
CLEARWATER AIR FAIR      81  75  83 CALM      30.06S
ST PETE CLEARW MOCLDY    83  73  72 S10       30.06S THUNDER
TAMPA INTL     MOCLDY    82  75  79 N5        30.07S
TAMPA EXEC     CLOUDY    81  75  83 CALM      30.08S
PLANT CITY     CLOUDY    81  77  89 CALM      30.09F
MACDILL AFB    CLOUDY    82  80  95 SW9       30.06F THUNDER
PETER O KNIGHT CLOUDY    86  77  74 E8        30.07S HX  97
ST PETERSBURG  CLOUDY    82  73  74 NW6       30.05F THUNDER
SARASOTA       MOCLDY    81  76  84 NW5       30.05F
VENICE         NOT AVBL

STATION/POSITION SKY/WX   TEMP    WIND        PRES    WAVE   SWELL
                          AIR SEA DIR/SP/G            HT/PER HT/PER
                          (F)     (DEG/KT/KT) (MB)    (FT/S) (FT/S)
27.3N   84.2W                 86                N/A     2/ 5
CLEARWATER BEACH           86 89  330/  6/  9 1018.2R
MIDDLE TAMPA BAY                  220/  5/ 15 1019.0R
VENICE                     81 89   30/  6/  7 1017.7S

$$
FLZ066-069-070-075>078-162-262-165-265-280600-
SOUTHWEST FLORIDA AND KEYS

CITY           SKY/WX    TMP DP  RH WIND       PRES   REMARKS
PUNTA GORDA    CLEAR     78  76  93 CALM      30.07S
FT MYERS       CLEAR     81  77  88 CALM      30.05S
SOUTHWEST INTL CLEAR     81  76  84 CALM      30.06S
NAPLES         CLEAR     79  76  90 E3        30.05F
MARCO ISLAND   CLEAR    N/A N/A N/A NE6       30.05F
MARATHON       PTCLDY    84  75  74 SE9G17    30.03S
KEY WEST NAS   PTCLDY    84  76  76 E13       30.03F
KEY WEST INTL  PTCLDY    85  78  80 E13       30.04S HX  96

STATION/POSITION SKY/WX   TEMP    WIND        PRES    WAVE   SWELL
                          AIR SEA DIR/SP/G            HT/PER HT/PER
                          (F)     (DEG/KT/KT) (MB)    (FT/S) (FT/S)
NAPLES                        87              1017.8S
26.0N   85.6W              85 86   90/ 10/ 12 1017.4R   3/ 8   2/ 8
DRY TORTUGAS               84     130/ 13/ 14 1016.9F
SAND KEY                   85     130/ 15/ 18 1017.4R
LONG KEY                   85 87  120/ 14/ 17 1017.1F

$$
FLZ067-068-071>074-168-172>174-280600-
SOUTHEAST FLORIDA

CITY           SKY/WX    TMP DP  RH WIND       PRES   REMARKS
W PALM BEACH   PTCLDY    84  75  74 SE5       30.07F
FT LAUDER-EXEC PTCLDY    83  75  77 E10       30.05F
FT LAUDERDALE  PTCLDY    84  75  74 E10       30.04F
POMPANO BEACH  CLEAR     84  75  74 E9        30.05F
PEMBROKE PINES CLEAR     84  75  74 E7        30.06F
OPA LOCKA      PTCLDY    83  76  79 E6        30.05F
MIAMI          PTCLDY    84  75  74 E9        30.05F
WEST KENDALL   CLEAR     82  75  79 E6        30.05S
HOMESTEAD      PTCLDY    84  76  75 E7        30.04S

STATION/POSITION SKY/WX   TEMP    WIND        PRES    WAVE   SWELL
                          AIR SEA DIR/SP/G            HT/PER HT/PER
                          (F)     (DEG/KT/KT) (MB)    (FT/S) (FT/S)
PORT EVERGLADES            85     100/  5/ 10 1017.9F
VIRGINIA KEY               85 89  100/ 12/ 15 1018.0F
LAKE WORTH                        140/  7/ 10   N/A
FOWEY ROCKS                85 85  100/ 15/ 15 1017.7F
SETTLEMENT POINT           83     130/  4/  5 1018.8S

$$





USA.gov is the U.S. government's official web portal to all federal, state and local government web resources and services.